Weather History for KNYL - June, 2013

Change the Weather History Date:

Thursday, June 13, 2013

  Actual Average Record
Temperature  
Mean Temperature 92 °F 88 °F  
Max Temperature 104 °F 103 °F 115 °F (1940)
Min Temperature 79 °F 74 °F 55 °F (1907)
Degree Days  
Heating Degree Days 0 0  
Month to date heating degree days 0 0  
Since 1 June heating degree days 0 0  
Since 1 July heating degree days 705 686  
Cooling Degree Days 27 23  
Month to date cooling degree days 344 284  
Year to date cooling degree days 1405 1196  
Since 1 June cooling degree days 344 284  
Growing Degree Days 40 (Base 50)    
Moisture  
Dew Point 46 °F    
Average Humidity 29    
Maximum Humidity 45    
Minimum Humidity 12    
Precipitation  
Precipitation 0.00 in 0.00 in 0.01 in (1921)
Month to date precipitation 0.00 0.00  
Year to date precipitation 1.11 1.32  
Sea Level Pressure  
Sea Level Pressure 29.77 in    
Wind  
Wind Speed 9 mph (South)    
Max Wind Speed 18 mph    
Max Gust Speed 22 mph    
Visibility 10 miles    
Events      
T = Trace of Precipitation, MM = Missing Value Source: NWS Daily Summary

Daily Weather History Graph

Daily Weather History Graph

Search for Another Location

Airport or City:

Trip Planner

Search our weather history database for the weather conditions in past years. The results will help you decide how hot, cold, wet, or windy it might be!

Date:

Astronomy

Jun. 13, 2013 Rise Set
Actual Time 5:30 AM MST 7:47 PM MST
Civil Twilight 5:01 AM MST 8:15 PM MST
Nautical Twilight 4:26 AM MST 8:50 PM MST
Astronomical Twilight 3:48 AM MST 9:28 PM MST
Moon 9:58 AM MST (6/13) 11:10 PM MST (6/13)
Length of Visible Light 15h 14m
Length of Day
14h 16m
Waxing Crescent, 22% of the Moon is Illuminated
Jun 13
Waxing Crescent
Jun 16
First Quarter
Jun 23
Full
Jun 29
Last Quarter
Jul 8
New

Hourly Weather History & Observations

Time (MST) Temp. Heat Index Dew Point Humidity Pressure Visibility Wind Dir Wind Speed Gust Speed Precip Events Conditions
12:57 AM 86.0 °F - 50.0 °F 29% 29.77 in 10.0 mi Calm Calm - N/A   Mostly Cloudy
1:57 AM 82.9 °F - 51.1 °F 33% 29.77 in 10.0 mi South 4.6 mph - N/A   Mostly Cloudy
2:57 AM 82.0 °F - 48.0 °F 30% 29.78 in 10.0 mi SSE 8.1 mph - N/A   Mostly Cloudy
3:57 AM 80.1 °F - 51.1 °F 36% 29.80 in 10.0 mi SSE 10.4 mph - N/A   Scattered Clouds
4:57 AM 80.1 °F 80.0 °F 54.0 °F 40% 29.80 in 10.0 mi SSE 6.9 mph - N/A   Partly Cloudy
5:57 AM 79.0 °F - 55.0 °F 44% 29.81 in 10.0 mi SSE 8.1 mph - N/A   Partly Cloudy
6:57 AM 82.0 °F 81.4 °F 55.0 °F 39% 29.82 in 10.0 mi SSE 6.9 mph - N/A   Partly Cloudy
7:57 AM 86.0 °F - 52.0 °F 31% 29.83 in 10.0 mi SSE 12.7 mph - N/A   Partly Cloudy
8:57 AM 91.0 °F - 48.0 °F 23% 29.85 in 10.0 mi SSE 11.5 mph - N/A   Partly Cloudy
9:57 AM 93.9 °F - 42.1 °F 17% 29.85 in 10.0 mi South 11.5 mph - N/A   Partly Cloudy
10:57 AM 96.1 °F - 39.0 °F 14% 29.85 in 10.0 mi ESE 4.6 mph - N/A   Partly Cloudy
11:57 AM 98.6 °F - 41.0 °F 14% 29.83 in 10.0 mi SSE 10.4 mph - N/A   Partly Cloudy
12:57 PM 100.4 °F - 42.8 °F 14% 29.82 in 10.0 mi SSW 8.1 mph - N/A   Partly Cloudy
1:57 PM 102.2 °F - 42.8 °F 13% 29.79 in 10.0 mi SSE 6.9 mph - N/A   Partly Cloudy
2:57 PM 102.0 °F - 42.1 °F 13% 29.76 in 10.0 mi SW 4.6 mph - N/A   Partly Cloudy
3:57 PM 102.9 °F - 41.0 °F 12% 29.74 in 10.0 mi South 6.9 mph - N/A   Partly Cloudy
4:57 PM 102.9 °F - 39.9 °F 12% 29.71 in 10.0 mi South 9.2 mph - N/A   Partly Cloudy
5:57 PM 102.9 °F - 39.9 °F 12% 29.70 in 10.0 mi South 9.2 mph - N/A   Partly Cloudy
6:57 PM 100.9 °F - 45.0 °F 15% 29.69 in 10.0 mi South 9.2 mph - N/A   Partly Cloudy
7:57 PM 95.0 °F - 46.9 °F 19% 29.69 in 10.0 mi SSE 9.2 mph - N/A   Partly Cloudy
8:57 PM 91.9 °F - 46.0 °F 21% 29.70 in 10.0 mi South 17.3 mph - N/A   Clear
9:57 PM 87.1 °F - 50.0 °F 28% 29.72 in 10.0 mi South 12.7 mph - N/A   Clear
10:57 PM 84.9 °F - 44.1 °F 24% 29.73 in 10.0 mi South 12.7 mph - N/A   Clear
11:57 PM 82.9 °F - 45.0 °F 26% 29.74 in 10.0 mi SW 6.9 mph - N/A   Clear